Wind from 046 at 5 knots gusting 10

Air temperature 18.9° C
Dewpoint 14.2° C

Last reported at 2014-Apr-23 23:45 UTC.
Time now 2014-Apr-24 00:07 UTC

Location: N 40°56' E 024°24'.
View on Google Maps.

See reports from other nearby stations

Tides Stations Pressure Air Temp Water Temp Dewpoint Dewpoint depression Visibility Wind Speed Wind Dir Waves Ship positions

  
sailing weather and tide predictions

DW5678 Kavala GR weather

date/time (UTC)wind fromknots sea level pressurealtimeterstation pressurevisibilityair tempwater tempwave heightnotes
2014-Apr-23 23:45 046 5 gusting 10 18.9
2014-Apr-23 23:30 021 4 gusting 10 19.4
2014-Apr-23 23:15 110 0 gusting 13 19.4
2014-Apr-23 23:00 040 6 gusting 13 18.9
2014-Apr-23 22:45 108 6 gusting 17 19.4
2014-Apr-23 22:30 029 5 gusting 10 20.0
2014-Apr-23 22:15 028 2 gusting 4 20.6
2014-Apr-23 22:00 051 0 gusting 11 20.6
2014-Apr-23 21:45 047 4 gusting 8 20.6
2014-Apr-23 21:30 032 6 gusting 13 20.6
2014-Apr-23 21:15 047 8 gusting 13 20.0
2014-Apr-23 21:00 080 0 gusting 6 20.0
2014-Apr-23 20:45 058 2 gusting 8 20.0
2014-Apr-23 20:30 035 1 gusting 5 18.9
2014-Apr-23 20:15 034 1 gusting 2 18.9
2014-Apr-23 20:00 225 2 gusting 4 19.4
2014-Apr-23 19:45 044 0 gusting 2 19.4
2014-Apr-23 19:30 076 19.4
2014-Apr-23 19:15 026 19.4
2014-Apr-23 19:00 043 20.0
2014-Apr-23 18:45 295 0 gusting 2 20.0
2014-Apr-23 18:30 023 20.6
2014-Apr-23 18:15 039 2 gusting 6 20.0
2014-Apr-23 18:00 035 1 gusting 5 20.0
2014-Apr-23 17:45 040 1 gusting 8 20.0
2014-Apr-23 17:30 033 4 gusting 6 19.4
2014-Apr-23 17:15 058 19.4
2014-Apr-23 17:00 285 1 gusting 5 19.4
2014-Apr-23 16:45 302 1 gusting 5 20.0
2014-Apr-23 16:30 020 0 gusting 6 20.0
2014-Apr-23 16:15 104 1 gusting 5 19.4
2014-Apr-23 16:00 014 1 gusting 7 19.4
2014-Apr-23 15:45 024 4 gusting 11 19.4
2014-Apr-23 15:30 059 4 gusting 7 18.9
2014-Apr-23 15:15 047 3 gusting 7 18.9
2014-Apr-23 15:00 036 2 gusting 6 18.9
2014-Apr-23 14:45 037 1 gusting 2 18.3
2014-Apr-23 14:30 258 0 gusting 2 18.3
2014-Apr-23 14:15 233 0 gusting 2 18.9
2014-Apr-23 14:00 152 0 gusting 2 18.9
2014-Apr-23 13:45 139 0 gusting 4 18.9
2014-Apr-23 13:30 162 0 gusting 2 18.9
2014-Apr-23 13:15 110 0 gusting 2 19.4
2014-Apr-23 13:00 134 0 gusting 2 18.9
2014-Apr-23 12:45 071 18.9
2014-Apr-23 12:30 147 1 gusting 2 18.9
2014-Apr-23 12:15 118 19.4
2014-Apr-23 12:00 128 0 gusting 2 19.4
2014-Apr-23 11:45 197 0 gusting 8 20.6
2014-Apr-23 11:30 054 2 gusting 7 21.7
2014-Apr-23 11:15 054 1 gusting 7 21.7
2014-Apr-23 11:00 107 1 gusting 6 20.6
2014-Apr-23 10:45 097 0 gusting 4 20.6
2014-Apr-23 10:30 102 0 gusting 2 21.1
2014-Apr-23 10:15 124 0 gusting 6 20.6
2014-Apr-23 10:00 103 1 gusting 2 20.0
2014-Apr-23 09:45 134 0 gusting 2 19.4
2014-Apr-23 09:30 132 1 gusting 2 19.4
2014-Apr-23 09:15 146 1 gusting 2 18.9
2014-Apr-23 09:00 094 18.3
2014-Apr-23 08:45 030 0 gusting 2 18.3
2014-Apr-23 08:30 025 0 gusting 2 18.3
2014-Apr-23 08:15 137 0 gusting 2 18.3
2014-Apr-23 08:00 135 1 gusting 2 18.3
2014-Apr-23 07:45 051 0 gusting 4 17.8
2014-Apr-23 07:30 100 2 gusting 4 17.8
2014-Apr-23 07:15 020 0 gusting 4 17.8
2014-Apr-23 07:00 083 1 gusting 5 17.2
2014-Apr-23 06:45 067 16.7
2014-Apr-23 06:30 107 16.1
2014-Apr-23 06:15 093 0 gusting 1 16.1
2014-Apr-23 06:00 049 16.1
2014-Apr-23 05:45 043 15.6
2014-Apr-23 05:30 043 15.6
2014-Apr-23 05:15 043 15.6
2014-Apr-23 05:00 043 15.0
2014-Apr-23 04:45 033 0 gusting 2 15.0
2014-Apr-23 04:30 038 1 gusting 5 15.0
2014-Apr-23 04:15 013 15.0
2014-Apr-23 04:00 275 15.0
2014-Apr-23 03:45 275 0 gusting 2 15.0
2014-Apr-23 03:30 295 15.0
2014-Apr-23 03:15 295 15.0
2014-Apr-23 03:00 296 15.0
2014-Apr-23 02:45 296 14.4
2014-Apr-23 02:30 299 14.4
2014-Apr-23 02:15 298 14.4
2014-Apr-23 02:00 298 15.0
2014-Apr-23 01:45 296 0 gusting 2 14.4
2014-Apr-23 01:30 327 14.4
2014-Apr-23 01:15 327 0 gusting 1 15.0
2014-Apr-23 01:00 246 15.0
2014-Apr-23 00:45 246 15.0
2014-Apr-23 00:30 246 15.0
2014-Apr-23 00:15 246 15.0
2014-Apr-23 00:00 246 15.0
2014-Apr-22 23:45 250 0 gusting 2 15.0
2014-Apr-22 23:30 290 15.0
2014-Apr-22 23:15 290 15.6
2014-Apr-22 23:00 290 15.6
2014-Apr-22 22:45 295 1 gusting 2 15.6
2014-Apr-22 22:30 060 15.6
2014-Apr-22 22:15 060 16.1
2014-Apr-22 22:00 083 16.1
2014-Apr-22 21:45 342 16.1
2014-Apr-22 21:30 342 16.1
2014-Apr-22 21:15 342 16.1
2014-Apr-22 21:00 342 15.6
2014-Apr-22 20:45 342 15.6
2014-Apr-22 20:30 342 15.6
2014-Apr-22 20:15 342 15.6
2014-Apr-22 20:00 342 16.1
2014-Apr-22 19:45 342 16.1
2014-Apr-22 19:30 341 16.1
2014-Apr-22 19:15 305 16.1
2014-Apr-22 19:00 305 16.1
2014-Apr-22 18:45 305 16.1
2014-Apr-22 18:30 305 16.1
2014-Apr-22 18:15 300 16.1
2014-Apr-22 18:00 299 16.1
2014-Apr-22 17:45 279 16.7
2014-Apr-22 17:30 279 16.7
2014-Apr-22 17:15 217 16.7
2014-Apr-22 17:00 211 16.7
2014-Apr-22 16:45 211 0 gusting 2 17.2
2014-Apr-22 16:30 222 17.2
2014-Apr-22 16:15 187 0 gusting 1 17.2
2014-Apr-22 16:00 192 17.2
2014-Apr-22 15:45 198 17.8
2014-Apr-22 15:30 199 0 gusting 2 17.8
2014-Apr-22 15:15 241 17.8
2014-Apr-22 15:00 239 17.8
2014-Apr-22 14:45 230 1 gusting 5 17.8
2014-Apr-22 14:30 227 1 gusting 2 18.9
2014-Apr-22 14:15 214 0 gusting 2 18.9
2014-Apr-22 14:00 132 18.3
2014-Apr-22 13:45 185 0 gusting 4 18.9
2014-Apr-22 13:30 196 0 gusting 2 18.9
2014-Apr-22 13:15 162 0 gusting 2 18.9
2014-Apr-22 13:00 235 0 gusting 4 18.3
2014-Apr-22 12:45 202 0 gusting 4 18.3
2014-Apr-22 12:30 152 17.8
2014-Apr-22 12:15 171 0 gusting 2 18.9
2014-Apr-22 12:00 187 1 gusting 5 18.9
2014-Apr-22 11:45 220 0 gusting 5 18.9
2014-Apr-22 11:30 207 1 gusting 2 18.9
2014-Apr-22 11:15 214 1 gusting 4 19.4
2014-Apr-22 11:00 220 1 gusting 2 18.9
2014-Apr-22 10:45 158 1 gusting 4 18.3
2014-Apr-22 10:30 211 0 gusting 2 18.3
2014-Apr-22 10:15 206 0 gusting 5 18.3
2014-Apr-22 10:00 185 1 gusting 6 17.8
2014-Apr-22 09:45 236 1 gusting 5 17.8
2014-Apr-22 09:30 233 2 gusting 5 17.8
2014-Apr-22 09:15 199 0 gusting 5 17.8
2014-Apr-22 09:00 206 0 gusting 2 17.8
2014-Apr-22 08:45 165 0 gusting 5 17.8
2014-Apr-22 08:30 209 0 gusting 4 17.8
2014-Apr-22 08:15 232 0 gusting 5 17.8
2014-Apr-22 08:00 220 1 gusting 4 17.2
2014-Apr-22 07:45 204 0 gusting 6 17.2
2014-Apr-22 07:30 181 1 gusting 6 17.8
2014-Apr-22 07:15 274 0 gusting 6 17.2
2014-Apr-22 07:00 240 1 gusting 6 17.2
2014-Apr-22 06:45 229 0 gusting 5 16.7
2014-Apr-22 06:30 315 0 gusting 6 16.7
2014-Apr-22 06:15 163 0 gusting 5 16.1
2014-Apr-22 06:00 148 0 gusting 6 15.6
2014-Apr-22 05:45 153 15.6
2014-Apr-22 05:30 184 15.0
2014-Apr-22 05:15 207 14.4
2014-Apr-22 05:00 207 13.9
2014-Apr-22 04:45 252 13.9
2014-Apr-22 04:30 343 13.9
2014-Apr-22 04:15 023 12.8
2014-Apr-22 04:00 023 12.8
2014-Apr-22 03:45 023 12.8
2014-Apr-22 03:30 023 12.8
2014-Apr-22 03:15 023 12.8
2014-Apr-22 03:00 023 12.8
2014-Apr-22 02:45 023 12.8
2014-Apr-22 02:30 023 12.8
2014-Apr-22 02:15 023 12.8
2014-Apr-22 02:00 023 13.3
2014-Apr-22 01:45 023 13.3
2014-Apr-22 01:30 023 13.3
2014-Apr-22 01:15 023 13.3
2014-Apr-22 01:00 023 13.3
2014-Apr-22 00:45 023 13.3
2014-Apr-22 00:30 023 13.3
2014-Apr-22 00:15 023 13.3
2014-Apr-22 00:00 023 13.3